Location: Fernhill
(41.0167°S, 175.6333°E)
Time: 16:26:26
(UTC+00:00)

Cosmos 1833 Rocket - Pass Details

Date: 23 February 2026
Orbit: 832 x 837 km, 71.0° (Epoch: 8 March)

Event Time Altitude Azimuth Distance (km) Brightness Sun altitude
Exits shadow 13:13:41 18° 216° (SW) 1,990 4.9 -38.3°
Drops below altitude 10° 13:16:32 10° 187° (S) 2,479 5.8 -38.2°
Sets 13:19:49 0° 168° (SSE) 3,421 6.8 -38.0°
